SCP
0 0 0 0 0 0 0 0 0 0 0 0 0 0 0 0 0 -0 -0 -0 -0 -0 -0 -0 -0 -0 -0 -0 -0 -0 -0 -0 -0 0 -0 -0 -0 -0 -0 0 0 -0 -0 0
0 0 0 0 0 0 0 0 0 0 0 0 0 0 0 0 0 0 -0 -0 -0 -0 -0 -0 -0 -0 -0 -0 -0 -0 -0 -0 -0 -0 -0 -0 -0 -0 -0 0 -0 -0 -0 0
0 0 0 0 0 0 0 0 0 0 0 0 0 0 0 0 0 -0 -0 -0 -0 -0 -0 -0 -0 -0 -0 -0 -0 -0 -0 -0 -0 0 -0 0 0 -0 -0 0 -0 -0 -0 -0
0 0 0 0 0 0 0 0 0 0 0 -0 -0 0 0 0 0 0 0 -0 -0 -0 -0 -0 -0 -0 -0 -0 -0 -0 -0 -0 -0 -0 0 0 0 0 0 0 -0 -0 -0 0
0 0 0 0 0 0 0 0 0 0 0 -0 -0 0 0 0 0 0 0 0 -0 -0 -0 -0 -0 -0 -0 -0 -0 -0 -0 -0 -0 0 0 0 0 0 0 0 0 0 -0 -0
0 0 0 0 0 0 0 0 0 0 0 -0 -0 0 0 0 0 0 0 0 -0 -0 -0 -0 -0 -0 -0 -0 -0 -0 -0 -0 -0 0 0 0 0 0 0 0 0 0 -0 -0
0 0 0 0 0 0 0 0 0 0 0 0 0 0 0 0 0 0 0 -0 -0 -0 -0 -0 -0 -0 -0 -0 -0 -0 -0 -0 -0 -0 0 0 0 0 0 0 0 0 0 0
0 0 0 0 0 0 0 0 0 0 0 0 0 0 0 0 0 0 0 -0 -0 -0 -0 -0 -0 -0 -0 -0 -0 -0 -0 -0 -0 -0 0 0 0 0 0 0 0 0 0 0
0 0 0 0 0 0 0 0 0 0 0 0 0 0 0 0 0 0 0 0 0 -0 -0 -0 -0 -0 -0 -0 -0 -0 -0 -0 -0 -0 -0 -0 -0 0 0 0 0 0 0 0
0 0 0 0 0 0 0 0 0 0 0 0 0 0 0 0 0 0 0 0 -0 -0 -0 -0 -0 -0 -0 -0 -0 -0 -0 -0 -0 -0 -0 -0 0 0 0 0 0 0 0 0
0 0 0 0 0 0 0 0 0 0 0 0 0 0 0 0 0 0 0 0 0 0 -0 -0 -0 -0 -0 -0 -0 -0 -0 -0 -0 -0 -0 -0 0 0 0 0 0 0 0 0
0 0 0 0 0 0 0 0 0 0 0 0 0 0 0 0 0 0 0 0 0 -0 0 -0 -0 -0 -0 -0 -0 -0 -0 -0 -0 -0 -0 -0 0 -0 -0 0 -0 -0 0 0
0 0 0 0 0 0 0 0 0 0 0 0 0 0 0 0 0 0 0 0 0 -0 0 -0 -0 -0 -0 -0 -0 -0 -0 -0 -0 -0 -0 -0 0 -0 -0 -0 0 -0 -0 -0
0 0 0 0 0 0 0 0 0 0 0 0 0 0 0 0 0 0 0 0 0 0 0 0 -0 -0 -0 -0 -0 -0 -0 -0 -0 -0 0 0 0 0 -0 -0 -0 -0 -0 0
0 0 0 0 0 0 0 0 0 0 0 0 0 0 0 0 0 0 0 0 0 0 0 0 0 0 -0 -0 -0 -0 -0 -0 -0 0 0 0 0 -0 -0 -0 -0 -0 0 0
0 0 0 0 0 0 0 0 0 0 0 0 0 0 0 0 0 0 0 0 1 0 0 0 0 -0 -0 -0 -0 -0 -0 -0 0 0 0 0 0 0 0 -0 -0 -0 -0 0
0 0 0 0 0 0 0 0 0 0 0 0 0 0 0 0 0 0 0 0 0 1 1 0 0 0 0 0 0 0 0 0 0 0 0 0 0 0 0 0 0 0 0 0
-0 0 0 0 0 0 0 0 0 0 0 0 0 0 0 0 0 0 0 0 0 1 1 0 0 0 0 0 0 0 0 0 0 0 0 0 0 0 0 0 0 0 0 0
-0 0 0 0 0 0 0 -0 0 0 0 0 0 0 0 0 0 0 0 0 0 2 2 1 0 0 0 0 0 0 0 0 0 0 0 0 0 0 0 0 0 0 0 0
0 0 0 0 0 0 0 0 -0 0 0 0 0 0 0 0 0 0 0 0 0 2 1 2 1 0 0 0 0 0 0 0 0 0 0 0 0 0 0 0 0 0 0 0
0 0 0 0 0 0 0 0 0 0 0 0 0 0 0 0 0 0 0 0 0 0 0 0 1 1 0 0 0 0 0 0 0 0 0 0 0 0 0 0 0 0 0 0
-0 0 0 0 0 0 0 0 0 0 0 0 0 0 0 0 0 0 0 0 0 0 0 1 3 0 0 0 0 0 0 0 0 0 0 0 0 0 0 0 0 0 0 0
-0 0 0 0 0 0 0 0 0 0 0 0 0 0 0 0 0 0 0 0 0 0 0 0 0 0 0 0 0 0 0 0 0 0 0 0 0 0 0 0 0 0 0 0
-0 -0 -0 0 -0 -0 0 0 0 0 0 0 0 0 0 0 0 0 0 0 0 0 0 0 0 0 0 1 1 1 0 1 1 0 0 0 0 0 0 0 0 0 0 0
-0 -0 -0 0 -0 -0 0 0 0 0 0 0 0 0 0 0 0 0 0 0 0 0 0 0 0 0 0 0 2 1 1 1 1 1 0 0 0 0 0 0 0 0 0 0
-0 -0 -0 -0 -0 -0 -0 -0 -0 -0 -0 0 0 0 0 0 0 0 0 0 0 0 0 0 0 0 0 0 1 2 1 1 1 0 0 0 0 1 1 0 0 0 0 0
0 -0 -0 -0 -0 -0 -0 -0 -0 -0 -0 -0 0 0 0 0 0 0 0 0 0 0 0 0 0 0 0 1 1 1 2 1 0 0 0 1 1 1 0 0 0 0 0 0
Wind_Speed_500mb
29 11 16 49 52 47 49 42 31 25 37 35 12 12 22 7 32 41 47 52 53 53 50 46 44 40 35 32 31 28 24 20 16 13 14 21 22 20 18 19 19 18 21 20
30 23 15 28 52 48 49 46 33 23 26 14 5 10 13 2 30 39 44 47 52 53 50 47 46 42 38 34 32 30 27 23 19 18 22 23 25 24 21 19 20 20 19 16
32 24 12 22 41 44 44 42 36 37 35 24 18 20 25 22 21 32 44 49 56 56 52 47 47 44 42 38 36 33 30 27 24 23 23 24 25 25 22 22 22 20 19 17
31 21 23 20 12 13 15 15 13 15 20 17 19 25 34 29 27 33 33 46 53 53 51 46 46 44 42 40 39 35 33 30 28 28 25 24 23 23 22 20 18 16 19 20
17 26 31 20 15 4 1 13 18 14 20 23 26 29 11 29 24 19 27 32 41 51 53 50 49 47 44 43 40 38 36 34 32 29 26 25 23 22 23 22 18 14 13 20
19 30 19 15 17 12 10 12 20 19 20 24 27 16 16 34 24 8 21 30 41 48 54 52 52 50 47 46 44 41 39 38 35 30 30 25 22 20 22 22 18 14 14 18
11 9 12 17 17 20 15 11 16 20 23 25 17 19 42 35 22 15 17 33 44 51 53 54 55 53 49 48 46 41 39 39 38 33 30 24 21 18 20 21 19 18 18 20
8 6 10 27 7 3 10 11 17 21 27 28 27 26 29 28 23 16 11 37 47 54 52 53 56 56 51 50 47 44 42 40 39 36 30 28 25 23 19 20 20 23 22 23
9 8 9 18 27 24 16 15 20 24 28 29 30 31 29 28 21 14 10 38 47 53 54 52 57 57 56 51 51 48 45 43 40 38 33 32 29 27 21 21 20 23 25 24
3 10 14 20 19 24 23 24 27 27 28 31 33 35 33 30 23 15 7 37 47 54 58 57 57 58 54 54 54 52 49 46 43 42 38 35 31 28 24 23 24 24 25 25
4 16 11 6 23 33 29 30 30 32 30 32 34 36 38 34 27 16 9 29 45 56 60 59 57 56 54 56 58 56 52 49 47 43 45 40 36 32 29 25 25 27 26 27
4 16 18 24 31 33 29 37 37 38 40 35 33 35 38 35 33 23 15 17 41 49 56 61 60 59 58 58 59 58 57 53 51 47 45 42 41 36 38 32 30 27 32 29
17 30 33 30 22 25 39 39 37 36 36 39 34 34 34 36 36 33 18 19 34 54 61 63 64 63 62 62 63 62 63 57 52 50 46 47 45 40 40 42 35 32 29 28
27 24 26 20 37 39 36 38 37 35 29 31 34 33 33 35 35 33 28 19 20 39 52 60 65 71 66 65 65 64 66 62 57 56 49 48 46 42 40 40 43 44 44 38
25 25 28 33 34 35 34 35 39 36 34 33 33 33 34 38 39 38 33 27 21 30 48 60 66 68 71 70 71 68 63 60 59 51 51 49 46 44 42 40 38 39 39 49
30 30 26 27 31 33 36 36 36 39 41 39 38 37 39 39 39 38 35 31 22 21 39 54 65 66 72 74 74 68 65 62 60 53 53 53 51 48 47 45 43 42 42 38
18 27 35 34 34 37 37 38 40 42 43 42 41 42 41 40 38 37 39 38 31 21 28 44 58 56 64 73 83 73 68 67 68 58 54 54 56 55 52 50 49 47 46 43
20 25 28 30 33 36 38 39 42 44 46 47 45 43 41 37 38 40 42 44 38 23 21 33 42 52 60 68 72 70 69 66 71 69 57 56 57 57 56 55 54 52 49 46
29 27 29 34 32 32 37 40 42 45 46 45 45 43 41 40 37 37 36 39 37 24 10 11 33 53 55 64 70 68 69 68 64 72 67 61 60 57 58 59 57 55 52 52
35 36 37 35 33 34 35 34 39 43 43 40 42 43 41 39 36 37 33 33 28 27 32 17 20 39 48 56 72 65 71 70 70 67 73 66 63 63 62 62 59 58 57 57
34 36 40 42 35 33 36 39 41 44 45 38 37 41 42 41 40 38 35 29 24 32 31 20 11 10 30 42 58 65 67 68 69 65 65 74 63 62 60 61 61 61 62 60
34 38 43 43 35 35 38 43 46 47 45 44 39 37 40 43 41 42 37 35 26 31 28 18 12 18 21 42 41 56 57 60 58 57 55 53 55 47 50 52 59 58 59 58
32 34 37 42 40 37 39 43 49 53 45 45 41 39 35 43 44 41 44 30 26 28 30 26 22 21 25 24 30 43 49 54 56 57 59 57 37 37 47 50 51 50 56 55
26 29 30 32 38 43 43 44 49 52 51 45 43 42 46 41 46 45 44 49 50 46 39 33 30 23 15 16 29 33 42 48 51 56 50 59 56 95 83 78 70 61 52 55
29 35 36 40 41 46 46 44 49 53 62 63 59 53 44 40 47 46 48 44 45 51 47 42 37 28 26 29 25 33 42 49 52 58 67 68 85 92 77 71 73 60 58 57
23 28 30 32 34 38 38 38 44 50 66 69 74 70 62 48 41 49 51 55 47 42 40 33 29 28 30 26 40 37 36 39 56 58 53 68 77 75 73 73 63 67 61 54
22 25 28 29 34 39 35 38 42 45 60 65 70 74 72 58 49 46 49 50 47 41 34 31 26 24 26 25 31 38 47 43 48 51 62 60 65 77 83 88 85 71 68 69
Wind_Direction_500mb
259 331 275 200 198 195 194 214 217 200 230 245 247 338 3 156 165 157 156 158 162 164 164 164 167 167 167 168 166 163 158 154 146 142 142 145 144 141 150 153 151 146 144 137
245 236 259 204 196 196 206 213 217 228 241 237 271 332 345 174 177 169 167 163 166 168 166 168 170 169 169 168 167 161 157 152 141 138 140 142 141 139 138 137 136 143 143 144
228 201 220 183 186 195 210 215 222 224 236 13 335 335 338 354 209 193 174 171 172 171 170 171 173 171 170 167 165 163 159 156 148 143 144 140 140 139 142 144 143 144 148 149
213 178 204 83 34 276 171 66 345 284 298 329 321 320 311 289 270 213 196 179 176 173 172 172 174 172 169 169 167 166 164 162 156 150 144 140 141 145 146 149 146 153 155 154
210 192 111 128 47 102 275 73 28 345 322 325 321 311 72 22 18 204 198 198 188 174 172 170 175 174 171 172 170 170 168 168 163 163 155 145 140 143 151 148 141 131 143 144
197 190 195 56 336 238 225 137 23 357 350 343 337 254 99 358 353 329 205 202 189 182 172 170 175 175 174 175 175 176 173 173 171 165 162 154 143 133 148 153 148 138 127 134
196 148 97 8 349 144 204 62 0 360 3 356 351 323 314 323 328 302 226 200 187 182 180 174 174 176 177 179 181 178 175 174 175 174 173 170 159 149 147 149 156 145 137 134
294 133 127 355 97 324 42 35 9 0 3 357 345 330 329 328 324 313 223 193 187 182 182 178 177 177 180 183 180 178 177 176 178 180 178 183 174 166 153 158 153 147 139 133
11 74 70 62 71 63 34 15 13 357 356 354 351 349 344 340 332 318 233 192 187 185 182 184 183 182 182 183 180 179 181 181 181 181 178 182 176 173 163 159 159 156 147 148
242 356 86 73 54 32 13 4 359 354 352 353 350 357 354 349 339 329 262 198 191 188 186 185 190 188 186 182 180 182 182 184 184 183 183 183 184 183 177 173 174 166 165 160
55 37 139 59 18 358 351 352 354 353 350 353 353 356 359 355 349 330 294 204 199 195 192 189 189 192 189 186 183 185 185 186 186 187 189 190 187 190 188 187 183 181 176 174
15 341 324 320 336 339 341 340 342 342 342 347 352 352 355 356 355 341 304 225 209 203 196 194 192 191 190 188 188 188 187 190 191 190 194 196 195 196 191 192 189 185 191 182
305 319 311 311 319 337 328 327 329 330 331 333 341 346 350 350 350 351 329 263 218 210 205 198 196 193 193 191 190 192 192 193 194 191 196 195 199 201 201 203 200 198 193 178
302 315 315 329 324 324 325 322 321 322 323 327 331 338 343 345 348 352 350 311 239 220 212 208 204 199 196 194 196 194 196 198 194 195 198 197 200 202 205 208 207 207 201 204
335 324 308 311 314 319 324 326 321 318 322 325 329 331 336 338 343 345 345 339 287 228 218 211 209 207 201 198 199 198 196 199 198 201 201 199 200 199 201 202 204 205 206 210
319 324 325 322 320 321 322 321 320 318 317 317 320 323 326 327 332 337 342 347 336 247 224 217 214 209 203 202 201 200 201 199 199 201 202 203 201 202 202 204 205 206 208 214
335 323 323 321 327 323 319 315 313 311 310 308 309 311 316 318 322 329 337 338 335 298 233 221 220 213 209 204 202 201 200 202 204 198 203 206 205 205 204 206 209 210 211 213
4 6 357 331 319 320 320 318 316 312 307 305 305 304 306 309 314 321 327 335 338 318 268 230 220 215 209 209 207 200 200 199 202 203 204 205 206 207 209 209 211 212 213 216
3 2 358 358 349 332 321 322 322 314 307 301 301 298 295 297 303 307 317 327 337 337 352 270 226 212 210 212 208 203 203 199 202 203 207 209 207 206 209 212 215 215 213 213
2 3 356 349 348 348 338 332 328 323 314 302 295 294 290 290 294 300 305 310 322 318 319 288 269 227 214 212 215 207 208 203 204 202 206 211 211 210 212 213 213 216 218 218
359 358 356 354 347 341 340 339 338 330 330 318 301 289 286 285 285 288 292 291 301 313 334 323 275 228 213 214 222 210 211 211 206 206 204 208 214 216 217 219 221 220 220 222
352 354 352 353 349 348 353 353 346 339 330 326 323 303 285 282 280 277 275 273 283 295 322 338 279 252 211 217 219 210 211 214 210 207 204 201 207 217 226 230 229 228 223 227
343 348 350 354 346 339 342 344 344 343 332 332 327 320 301 277 271 271 272 263 263 270 287 315 303 275 254 242 215 202 205 208 206 202 199 199 208 234 235 232 233 232 237 226
336 339 339 344 351 350 342 340 344 348 346 338 332 320 312 297 275 266 264 270 266 265 271 282 294 304 247 214 209 206 207 199 197 197 210 231 239 243 254 243 235 226 224 231
331 334 339 345 347 348 343 340 339 342 341 345 343 336 317 300 278 272 262 259 263 262 270 276 277 278 277 242 238 223 221 218 223 230 235 243 245 238 238 241 228 222 220 224
327 329 330 335 338 339 340 340 337 341 346 345 347 346 338 322 294 268 258 254 253 254 262 268 278 276 277 263 240 237 234 232 228 231 228 229 225 226 224 223 222 225 225 230
323 328 331 330 336 340 342 343 345 344 348 351 349 349 340 330 316 283 253 248 248 245 249 252 259 268 275 257 253 239 236 236 238 233 235 234 229 220 227 232 230 231 232 230
Wind_Speed_850mb
29 11 16 49 52 47 49 42 31 25 37 35 12 12 22 7 32 41 47 52 53 53 50 46 44 40 35 32 31 28 24 20 16 13 14 21 22 20 18 19 19 18 21 20
30 23 15 28 52 48 49 46 33 23 26 14 5 10 13 2 30 39 44 47 52 53 50 47 46 42 38 34 32 30 27 23 19 18 22 23 25 24 21 19 20 20 19 16
32 24 12 22 41 44 44 42 36 37 35 24 18 20 25 22 21 32 44 49 56 56 52 47 47 44 42 38 36 33 30 27 24 23 23 24 25 25 22 22 22 20 19 17
31 21 23 20 12 13 15 15 13 15 20 17 19 25 34 29 27 33 33 46 53 53 51 46 46 44 42 40 39 35 33 30 28 28 25 24 23 23 22 20 18 16 19 20
17 26 31 20 15 4 1 13 18 14 20 23 26 29 11 29 24 19 27 32 41 51 53 50 49 47 44 43 40 38 36 34 32 29 26 25 23 22 23 22 18 14 13 20
19 30 19 15 17 12 10 12 20 19 20 24 27 16 16 34 24 8 21 30 41 48 54 52 52 50 47 46 44 41 39 38 35 30 30 25 22 20 22 22 18 14 14 18
11 9 12 17 17 20 15 11 16 20 23 25 17 19 42 35 22 15 17 33 44 51 53 54 55 53 49 48 46 41 39 39 38 33 30 24 21 18 20 21 19 18 18 20
8 6 10 27 7 3 10 11 17 21 27 28 27 26 29 28 23 16 11 37 47 54 52 53 56 56 51 50 47 44 42 40 39 36 30 28 25 23 19 20 20 23 22 23
9 8 9 18 27 24 16 15 20 24 28 29 30 31 29 28 21 14 10 38 47 53 54 52 57 57 56 51 51 48 45 43 40 38 33 32 29 27 21 21 20 23 25 24
3 10 14 20 19 24 23 24 27 27 28 31 33 35 33 30 23 15 7 37 47 54 58 57 57 58 54 54 54 52 49 46 43 42 38 35 31 28 24 23 24 24 25 25
4 16 11 6 23 33 29 30 30 32 30 32 34 36 38 34 27 16 9 29 45 56 60 59 57 56 54 56 58 56 52 49 47 43 45 40 36 32 29 25 25 27 26 27
4 16 18 24 31 33 29 37 37 38 40 35 33 35 38 35 33 23 15 17 41 49 56 61 60 59 58 58 59 58 57 53 51 47 45 42 41 36 38 32 30 27 32 29
17 30 33 30 22 25 39 39 37 36 36 39 34 34 34 36 36 33 18 19 34 54 61 63 64 63 62 62 63 62 63 57 52 50 46 47 45 40 40 42 35 32 29 28
27 24 26 20 37 39 36 38 37 35 29 31 34 33 33 35 35 33 28 19 20 39 52 60 65 71 66 65 65 64 66 62 57 56 49 48 46 42 40 40 43 44 44 38
25 25 28 33 34 35 34 35 39 36 34 33 33 33 34 38 39 38 33 27 21 30 48 60 66 68 71 70 71 68 63 60 59 51 51 49 46 44 42 40 38 39 39 49
30 30 26 27 31 33 36 36 36 39 41 39 38 37 39 39 39 38 35 31 22 21 39 54 65 66 72 74 74 68 65 62 60 53 53 53 51 48 47 45 43 42 42 38
18 27 35 34 34 37 37 38 40 42 43 42 41 42 41 40 38 37 39 38 31 21 28 44 58 56 64 73 83 73 68 67 68 58 54 54 56 55 52 50 49 47 46 43
20 25 28 30 33 36 38 39 42 44 46 47 45 43 41 37 38 40 42 44 38 23 21 33 42 52 60 68 72 70 69 66 71 69 57 56 57 57 56 55 54 52 49 46
29 27 29 34 32 32 37 40 42 45 46 45 45 43 41 40 37 37 36 39 37 24 10 11 33 53 55 64 70 68 69 68 64 72 67 61 60 57 58 59 57 55 52 52
35 36 37 35 33 34 35 34 39 43 43 40 42 43 41 39 36 37 33 33 28 27 32 17 20 39 48 56 72 65 71 70 70 67 73 66 63 63 62 62 59 58 57 57
34 36 40 42 35 33 36 39 41 44 45 38 37 41 42 41 40 38 35 29 24 32 31 20 11 10 30 42 58 65 67 68 69 65 65 74 63 62 60 61 61 61 62 60
34 38 43 43 35 35 38 43 46 47 45 44 39 37 40 43 41 42 37 35 26 31 28 18 12 18 21 42 41 56 57 60 58 57 55 53 55 47 50 52 59 58 59 58
32 34 37 42 40 37 39 43 49 53 45 45 41 39 35 43 44 41 44 30 26 28 30 26 22 21 25 24 30 43 49 54 56 57 59 57 37 37 47 50 51 50 56 55
26 29 30 32 38 43 43 44 49 52 51 45 43 42 46 41 46 45 44 49 50 46 39 33 30 23 15 16 29 33 42 48 51 56 50 59 56 95 83 78 70 61 52 55
29 35 36 40 41 46 46 44 49 53 62 63 59 53 44 40 47 46 48 44 45 51 47 42 37 28 26 29 25 33 42 49 52 58 67 68 85 92 77 71 73 60 58 57
23 28 30 32 34 38 38 38 44 50 66 69 74 70 62 48 41 49 51 55 47 42 40 33 29 28 30 26 40 37 36 39 56 58 53 68 77 75 73 73 63 67 61 54
22 25 28 29 34 39 35 38 42 45 60 65 70 74 72 58 49 46 49 50 47 41 34 31 26 24 26 25 31 38 47 43 48 51 62 60 65 77 83 88 85 71 68 69
Wind_Direction_850mb
259 331 275 200 198 195 194 214 217 200 230 245 247 338 3 156 165 157 156 158 162 164 164 164 167 167 167 168 166 163 158 154 146 142 142 145 144 141 150 153 151 146 144 137
245 236 259 204 196 196 206 213 217 228 241 237 271 332 345 174 177 169 167 163 166 168 166 168 170 169 169 168 167 161 157 152 141 138 140 142 141 139 138 137 136 143 143 144
228 201 220 183 186 195 210 215 222 224 236 13 335 335 338 354 209 193 174 171 172 171 170 171 173 171 170 167 165 163 159 156 148 143 144 140 140 139 142 144 143 144 148 149
213 178 204 83 34 276 171 66 345 284 298 329 321 320 311 289 270 213 196 179 176 173 172 172 174 172 169 169 167 166 164 162 156 150 144 140 141 145 146 149 146 153 155 154
210 192 111 128 47 102 275 73 28 345 322 325 321 311 72 22 18 204 198 198 188 174 172 170 175 174 171 172 170 170 168 168 163 163 155 145 140 143 151 148 141 131 143 144
197 190 195 56 336 238 225 137 23 357 350 343 337 254 99 358 353 329 205 202 189 182 172 170 175 175 174 175 175 176 173 173 171 165 162 154 143 133 148 153 148 138 127 134
196 148 97 8 349 144 204 62 0 360 3 356 351 323 314 323 328 302 226 200 187 182 180 174 174 176 177 179 181 178 175 174 175 174 173 170 159 149 147 149 156 145 137 134
294 133 127 355 97 324 42 35 9 0 3 357 345 330 329 328 324 313 223 193 187 182 182 178 177 177 180 183 180 178 177 176 178 180 178 183 174 166 153 158 153 147 139 133
11 74 70 62 71 63 34 15 13 357 356 354 351 349 344 340 332 318 233 192 187 185 182 184 183 182 182 183 180 179 181 181 181 181 178 182 176 173 163 159 159 156 147 148
242 356 86 73 54 32 13 4 359 354 352 353 350 357 354 349 339 329 262 198 191 188 186 185 190 188 186 182 180 182 182 184 184 183 183 183 184 183 177 173 174 166 165 160
55 37 139 59 18 358 351 352 354 353 350 353 353 356 359 355 349 330 294 204 199 195 192 189 189 192 189 186 183 185 185 186 186 187 189 190 187 190 188 187 183 181 176 174
15 341 324 320 336 339 341 340 342 342 342 347 352 352 355 356 355 341 304 225 209 203 196 194 192 191 190 188 188 188 187 190 191 190 194 196 195 196 191 192 189 185 191 182
305 319 311 311 319 337 328 327 329 330 331 333 341 346 350 350 350 351 329 263 218 210 205 198 196 193 193 191 190 192 192 193 194 191 196 195 199 201 201 203 200 198 193 178
302 315 315 329 324 324 325 322 321 322 323 327 331 338 343 345 348 352 350 311 239 220 212 208 204 199 196 194 196 194 196 198 194 195 198 197 200 202 205 208 207 207 201 204
335 324 308 311 314 319 324 326 321 318 322 325 329 331 336 338 343 345 345 339 287 228 218 211 209 207 201 198 199 198 196 199 198 201 201 199 200 199 201 202 204 205 206 210
319 324 325 322 320 321 322 321 320 318 317 317 320 323 326 327 332 337 342 347 336 247 224 217 214 209 203 202 201 200 201 199 199 201 202 203 201 202 202 204 205 206 208 214
335 323 323 321 327 323 319 315 313 311 310 308 309 311 316 318 322 329 337 338 335 298 233 221 220 213 209 204 202 201 200 202 204 198 203 206 205 205 204 206 209 210 211 213
4 6 357 331 319 320 320 318 316 312 307 305 305 304 306 309 314 321 327 335 338 318 268 230 220 215 209 209 207 200 200 199 202 203 204 205 206 207 209 209 211 212 213 216
3 2 358 358 349 332 321 322 322 314 307 301 301 298 295 297 303 307 317 327 337 337 352 270 226 212 210 212 208 203 203 199 202 203 207 209 207 206 209 212 215 215 213 213
2 3 356 349 348 348 338 332 328 323 314 302 295 294 290 290 294 300 305 310 322 318 319 288 269 227 214 212 215 207 208 203 204 202 206 211 211 210 212 213 213 216 218 218
359 358 356 354 347 341 340 339 338 330 330 318 301 289 286 285 285 288 292 291 301 313 334 323 275 228 213 214 222 210 211 211 206 206 204 208 214 216 217 219 221 220 220 222
352 354 352 353 349 348 353 353 346 339 330 326 323 303 285 282 280 277 275 273 283 295 322 338 279 252 211 217 219 210 211 214 210 207 204 201 207 217 226 230 229 228 223 227
343 348 350 354 346 339 342 344 344 343 332 332 327 320 301 277 271 271 272 263 263 270 287 315 303 275 254 242 215 202 205 208 206 202 199 199 208 234 235 232 233 232 237 226
336 339 339 344 351 350 342 340 344 348 346 338 332 320 312 297 275 266 264 270 266 265 271 282 294 304 247 214 209 206 207 199 197 197 210 231 239 243 254 243 235 226 224 231
331 334 339 345 347 348 343 340 339 342 341 345 343 336 317 300 278 272 262 259 263 262 270 276 277 278 277 242 238 223 221 218 223 230 235 243 245 238 238 241 228 222 220 224
327 329 330 335 338 339 340 340 337 341 346 345 347 346 338 322 294 268 258 254 253 254 262 268 278 276 277 263 240 237 234 232 228 231 228 229 225 226 224 223 222 225 225 230
323 328 331 330 336 340 342 343 345 344 348 351 349 349 340 330 316 283 253 248 248 245 249 252 259 268 275 257 253 239 236 236 238 233 235 234 229 220 227 232 230 231 232 230